Temp
66 65 64 63 61 62 61 60 59 58 58 58 58 57 57 56 56 56 56 55 54 54
66 65 63 61 62 61 60 60 59 59 58 58 58 57 57 56 56 56 55 54 53 52
65 64 61 60 59 60 60 60 58 57 57 57 57 57 57 56 55 54 53 53 53 52
64 62 61 60 61 60 59 58 58 58 57 57 57 56 56 56 55 54 53 53 53 51
62 61 59 59 60 59 59 59 58 58 58 58 58 56 57 57 56 55 53 52 52 50
61 60 59 59 57 58 58 57 58 58 58 58 58 57 57 57 55 54 52 51 50 50
60 60 59 58 57 57 58 57 57 58 59 58 58 57 57 56 54 53 52 51 50 50
60 59 58 57 57 57 57 57 57 56 56 57 57 57 55 54 53 52 51 51 52 52
59 58 57 56 57 56 55 55 55 55 55 54 56 49 51 53 52 52 50 49 49 50
58 58 58 57 56 54 53 53 53 52 53 52 52 48 48 50 51 49 48 48 49 51
59 56 57 57 55 52 53 52 51 50 50 50 50 47 47 48 49 48 48 48 48 48
59 57 56 54 52 52 51 50 50 50 49 50 49 46 46 49 49 48 48 49 49 49
59 57 55 53 51 51 52 49 50 48 49 49 49 45 45 49 51 48 49 48 48 45
58 56 54 52 51 50 50 48 47 46 46 48 49 47 45 45 51 50 49 50 50 50
MSLP
1008.08 1008.87 1009.89 1011.11 1012.23 1012.79 1013.64 1014.40 1015.06 1015.18 1015.84 1016.34 1016.56 1016.89 1017.24 1017.03 1016.90 1017.39 1017.99 1018.40 1018.39 1018.97
1008.15 1008.43 1008.83 1010.68 1011.80 1012.52 1013.44 1014.54 1014.89 1015.35 1016.07 1016.49 1017.03 1017.05 1017.35 1017.21 1017.44 1017.91 1018.33 1018.75 1018.80 1019.30
1008.43 1009.02 1008.76 1010.23 1011.55 1012.71 1013.30 1014.44 1014.93 1015.87 1016.06 1016.87 1017.32 1017.38 1017.53 1017.49 1018.11 1018.03 1018.68 1018.78 1019.60 1019.60
1008.38 1007.93 1009.81 1010.04 1011.82 1012.26 1013.39 1014.31 1015.03 1015.52 1016.13 1016.97 1017.32 1017.44 1017.74 1018.05 1017.99 1018.51 1018.88 1019.25 1020.19 1020.19
1008.22 1008.28 1010.09 1010.74 1011.91 1012.08 1013.69 1014.24 1014.65 1015.78 1016.50 1016.97 1017.44 1017.45 1017.94 1018.05 1018.26 1018.76 1019.65 1019.97 1020.49 1020.62
1007.54 1009.00 1010.14 1011.16 1011.76 1012.42 1013.77 1014.05 1015.21 1015.85 1016.54 1017.34 1017.39 1017.63 1017.66 1018.21 1018.36 1019.14 1019.83 1020.37 1020.89 1020.93
1008.40 1009.32 1010.33 1011.27 1011.46 1012.74 1013.28 1013.90 1015.03 1015.77 1016.74 1017.55 1017.66 1017.33 1017.77 1018.10 1018.81 1019.60 1020.16 1020.53 1020.96 1021.12
1008.44 1009.55 1010.24 1010.93 1011.72 1012.31 1013.24 1014.11 1015.20 1015.95 1016.56 1017.31 1017.99 1017.35 1017.93 1018.23 1018.91 1019.77 1020.54 1020.97 1021.08 1021.00
1008.14 1009.23 1010.14 1010.97 1011.36 1012.61 1013.89 1014.58 1015.33 1015.91 1016.64 1017.48 1017.90 1017.49 1018.00 1018.45 1019.14 1019.94 1020.73 1021.32 1021.16 1020.92
1007.98 1009.02 1010.08 1010.60 1011.86 1013.04 1014.20 1014.56 1015.34 1016.14 1016.91 1017.65 1018.35 1017.87 1018.45 1018.59 1019.27 1020.38 1020.88 1021.32 1021.20 1021.14
1007.88 1007.92 1009.58 1011.05 1012.15 1013.22 1014.17 1014.65 1015.39 1016.34 1017.14 1017.71 1018.64 1018.47 1018.67 1019.15 1019.48 1020.76 1021.24 1021.31 1021.18 1021.43
1007.13 1008.27 1009.88 1011.21 1012.50 1013.39 1014.08 1015.04 1015.79 1016.35 1017.32 1017.65 1019.02 1018.61 1019.08 1019.25 1020.02 1021.09 1021.24 1021.47 1021.48 1021.43
1006.86 1008.15 1009.77 1010.67 1012.20 1013.20 1013.99 1015.35 1016.19 1016.76 1017.47 1018.33 1018.86 1019.04 1019.08 1019.49 1020.20 1021.04 1021.11 1021.69 1021.83 1021.98
1007.27 1008.46 1009.32 1011.01 1012.41 1013.70 1014.70 1015.54 1016.23 1017.32 1018.22 1018.55 1019.15 1019.17 1019.39 1019.60 1020.29 1020.47 1020.98 1021.67 1021.99 1022.63
Wind_Speed
17 12 10 10 9 8 7 7 6 7 6 6 6 5 5 6 6 7 7 8 7 5
13 13 15 12 9 8 9 7 8 9 8 7 5 6 6 6 7 8 6 6 7 5
12 12 12 13 12 12 10 9 10 9 9 7 6 6 7 7 6 9 5 6 6 5
10 13 11 12 11 12 11 11 11 10 10 8 8 7 7 7 9 10 8 7 6 5
14 14 11 12 12 13 12 11 11 10 9 9 8 8 9 8 8 9 8 7 5 5
12 13 13 13 13 12 12 11 10 10 9 9 8 8 8 9 10 9 8 6 5 3
14 14 12 13 14 13 12 13 11 10 9 8 7 9 9 10 10 8 8 6 5 3
13 12 14 14 13 13 12 10 10 10 9 8 7 7 10 10 10 9 7 5 4 4
15 14 13 13 14 13 11 11 11 10 10 8 5 13 14 11 9 8 6 5 4 5
17 15 14 14 14 13 12 11 10 10 9 8 6 14 14 14 8 7 6 5 4 5
17 15 15 14 14 12 10 11 10 9 9 9 5 13 15 14 10 7 6 5 6 5
19 18 16 15 12 11 11 10 8 9 9 10 6 13 15 12 9 7 6 5 5 5
18 19 17 16 13 10 11 9 8 8 5 7 9 11 13 11 7 7 6 4 5 8
17 17 17 15 12 11 11 10 9 9 4 5 5 8 12 12 6 6 6 4 5 4
Wind_Direction
155 157 154 152 150 142 143 140 151 118 112 115 103 108 112 102 95 98 95 89 81 80
161 164 152 140 141 133 130 144 133 122 123 115 127 116 117 106 99 94 86 82 78 77
163 149 128 132 135 144 131 141 130 135 122 119 118 119 114 102 97 93 82 80 70 70
144 124 143 131 149 141 134 147 141 136 132 142 139 125 111 111 104 94 88 77 67 60
145 129 142 140 151 136 148 144 132 135 134 140 144 130 128 118 108 101 88 77 64 47
128 143 157 152 145 134 146 128 131 134 136 147 143 134 119 120 108 100 94 82 69 54
156 161 156 153 134 143 139 135 137 138 140 146 144 130 123 117 106 101 93 87 77 61
148 151 145 139 143 135 133 129 136 134 130 139 146 130 123 118 119 112 99 81 68 59
144 144 144 141 135 130 127 134 135 136 135 136 149 125 123 126 117 107 107 104 85 66
146 146 149 137 137 135 143 138 134 128 129 124 130 126 122 112 110 111 112 110 85 63
146 148 139 143 142 134 142 135 133 127 123 125 128 133 120 114 107 105 105 97 79 67
151 144 144 141 139 138 132 127 131 130 133 129 147 136 131 118 110 111 106 90 73 72
151 148 148 138 137 134 127 126 130 113 116 147 143 155 136 126 122 124 112 86 69 54
146 141 129 126 125 132 129 123 114 113 116 129 156 154 141 128 137 132 120 116 92 82